When you browse on this site, cookies collect data to enhance your experience and personalize the content and advertising you see.
Visit our Privacy Policy to learn more. By continuing to use the site, you agree to this use of cookies and data.
  • In Czech Republic
  • List of Countries
  • For 7 days
  • Water Temperature
  • Weather Map
  • Weather Widgets
  • user-avatar
    Login

    Hourly Weather Midwest City

    Today, 20 February, Thursday

    Time Temperature Precipitation Wind Pressure Humidity
    00:00 +5°C° 0 mm 5 mps 737 mmHg 61%
    01:00 +4°C° 0 mm 6 mps 737 mmHg 64%
    02:00 +3°C° 0 mm 6 mps 737 mmHg 67%
    03:00 +3°C° 0 mm 6 mps 738 mmHg 71%
    04:00 +2°C° 0 mm 7 mps 738 mmHg 72%
    05:00 0°C° 0 mm 7 mps 739 mmHg 74%
    06:00 0°C° 0 mm 7 mps 740 mmHg 76%
    07:00 0°C° 0 mm 7 mps 741 mmHg 76%
    08:00 0°C° 0 mm 8 mps 741 mmHg 77%
    09:00 0°C° 0 mm 8 mps 742 mmHg 78%
    10:00 0°C° 0 mm 8 mps 743 mmHg 74%
    11:00 0°C° 0 mm 8 mps 744 mmHg 70%
    12:00 0°C° 0 mm 8 mps 745 mmHg 66%
    13:00 +1°C° 0 mm 8 mps 744 mmHg 62%
    14:00 +2°C° 0 mm 8 mps 744 mmHg 58%
    15:00 +2°C° 0 mm 8 mps 744 mmHg 54%
    16:00 +3°C° 0 mm 7 mps 744 mmHg 54%
    17:00 +2°C° 0 mm 6 mps 744 mmHg 55%
    18:00 +2°C° 0 mm 5 mps 744 mmHg 55%
    19:00 +1°C° 0 mm 5 mps 745 mmHg 60%
    20:00 0°C° 0 mm 4 mps 745 mmHg 64%
    21:00 -1°C° 0 mm 4 mps 745 mmHg 68%
    22:00 -1°C° 0 mm 3 mps 745 mmHg 68%
    23:00 -2°C° 0 mm 3 mps 746 mmHg 68%

    Tomorrow, 21 February, Friday

    Time Temperature Precipitation Wind Pressure Humidity
    00:00 -2°C° 0 mm 3 mps 746 mmHg 68%
    07:00 -1°C° 0 mm 1 mps 744 mmHg 55%
    08:00 0°C° 0 mm 1 mps 744 mmHg 50%
    09:00 -1°C° 0 mm 2 mps 744 mmHg 44%
    10:00 +2°C° 0 mm 2 mps 744 mmHg 41%
    11:00 +2°C° 0 mm 3 mps 744 mmHg 38%
    12:00 +4°C° 0 mm 3 mps 743 mmHg 35%
    13:00 +5°C° 0 mm 3 mps 742 mmHg 35%
    14:00 +6°C° 0 mm 4 mps 741 mmHg 36%
    15:00 +7°C° 0 mm 4 mps 740 mmHg 36%
    16:00 +6°C° 0 mm 4 mps 740 mmHg 40%
    17:00 +6°C° 0 mm 4 mps 739 mmHg 44%
    18:00 +5°C° 0 mm 4 mps 739 mmHg 48%
    19:00 +4°C° 0 mm 4 mps 739 mmHg 50%
    20:00 +3°C° 0 mm 4 mps 739 mmHg 51%
    21:00 +1°C° 0 mm 4 mps 738 mmHg 53%
    22:00 +1°C° 0 mm 5 mps 738 mmHg 53%
    23:00 +1°C° 0 mm 5 mps 738 mmHg 52%

    Day after tomorrow, 22 February, Saturday

    Time Temperature Precipitation Wind Pressure Humidity
    00:00 +1°C° 0 mm 5 mps 738 mmHg 52%
    01:00 +1°C° 0 mm 5 mps 737 mmHg 54%
    02:00 +1°C° 0 mm 5 mps 737 mmHg 56%
    03:00 0°C° 0 mm 5 mps 736 mmHg 57%
    04:00 0°C° 0 mm 5 mps 736 mmHg 60%
    05:00 0°C° 0 mm 5 mps 736 mmHg 62%
    06:00 -1°C° 0 mm 6 mps 736 mmHg 65%
    07:00 +1°C° 0 mm 6 mps 736 mmHg 66%
    08:00 +2°C° 0 mm 6 mps 736 mmHg 68%
    09:00 +3°C° 0 mm 7 mps 736 mmHg 69%
    10:00 +5°C° 0 mm 7 mps 736 mmHg 65%
    11:00 +8°C° 0 mm 7 mps 735 mmHg 61%
    12:00 +10°C° 0 mm 7 mps 735 mmHg 58%
    13:00 +10°C° 0 mm 7 mps 734 mmHg 57%
    14:00 +11°C° 0 mm 7 mps 733 mmHg 56%
    15:00 +12°C° 0 mm 8 mps 732 mmHg 55%
    16:00 +11°C° 0 mm 7 mps 732 mmHg 58%
    17:00 +11°C° 0 mm 6 mps 732 mmHg 62%
    18:00 +10°C° 0 mm 6 mps 731 mmHg 65%
    19:00 +10°C° 0 mm 6 mps 731 mmHg 66%
    20:00 +9°C° 0 mm 6 mps 731 mmHg 67%
    21:00 +9°C° 0 mm 7 mps 731 mmHg 68%
    22:00 +9°C° 0 mm 7 mps 731 mmHg 71%
    23:00 +8°C° 0 mm 7 mps 731 mmHg 73%

    23 February, Sunday

    Time Temperature Precipitation Wind Pressure Humidity
    00:00 +8°C° 0 mm 7 mps 730 mmHg 75%
    01:00 +8°C° 0.2 mm 7 mps 730 mmHg 75%
    02:00 +8°C° 0.2 mm 7 mps 729 mmHg 76%
    03:00 +8°C° 0.2 mm 7 mps 729 mmHg 77%
    04:00 +9°C° 0.1 mm 8 mps 728 mmHg 78%
    05:00 +9°C° 0.1 mm 8 mps 728 mmHg 79%
    06:00 +9°C° 0.1 mm 8 mps 727 mmHg 80%
    07:00 +8°C° 0 mm 9 mps 727 mmHg 81%
    08:00 +8°C° 0 mm 9 mps 726 mmHg 82%
    09:00 +8°C° 0 mm 9 mps 726 mmHg 83%
    10:00 +9°C° 0 mm 10 mps 726 mmHg 81%
    11:00 +9°C° 0 mm 10 mps 725 mmHg 80%
    12:00 +11°C° 0 mm 10 mps 724 mmHg 78%
    13:00 +12°C° 0.2 mm 10 mps 723 mmHg 78%
    14:00 +12°C° 0.2 mm 10 mps 722 mmHg 77%
    15:00 +13°C° 0.2 mm 10 mps 721 mmHg 77%
    16:00 +13°C° 0.1 mm 10 mps 720 mmHg 77%
    17:00 +13°C° 0.1 mm 10 mps 720 mmHg 78%
    18:00 +14°C° 0.1 mm 10 mps 719 mmHg 79%
    19:00 +13°C° 0.2 mm 9 mps 719 mmHg 80%
    20:00 +13°C° 0.2 mm 9 mps 719 mmHg 81%
    21:00 +13°C° 0.2 mm 9 mps 718 mmHg 82%
    22:00 +12°C° 0 mm 9 mps 719 mmHg 75%
    23:00 +10°C° 0 mm 8 mps 719 mmHg 67%

    24 February, Monday

    Time Temperature Precipitation Wind Pressure Humidity
    00:00 +9°C° 0 mm 8 mps 719 mmHg 59%
    01:00 +7°C° 0 mm 8 mps 720 mmHg 63%
    02:00 +7°C° 0 mm 8 mps 720 mmHg 66%
    03:00 +7°C° 0 mm 8 mps 721 mmHg 70%
    04:00 +6°C° 0 mm 7 mps 722 mmHg 71%
    05:00 +5°C° 0 mm 7 mps 722 mmHg 71%
    06:00 +4°C° 0 mm 7 mps 723 mmHg 72%
    07:00 +5°C° 0 mm 7 mps 724 mmHg 68%
    08:00 +6°C° 0 mm 8 mps 725 mmHg 65%
    09:00 +6°C° 0 mm 8 mps 726 mmHg 61%
    10:00 +9°C° 0 mm 8 mps 726 mmHg 56%
    11:00 +10°C° 0 mm 7 mps 726 mmHg 52%
    12:00 +11°C° 0 mm 7 mps 726 mmHg 48%
    13:00 +13°C° 0 mm 6 mps 726 mmHg 44%
    14:00 +14°C° 0 mm 6 mps 726 mmHg 40%
    15:00 +15°C° 0 mm 5 mps 725 mmHg 36%
    16:00 +14°C° 0 mm 4 mps 725 mmHg 37%
    17:00 +13°C° 0 mm 3 mps 725 mmHg 38%
    18:00 +12°C° 0 mm 3 mps 725 mmHg 39%
    19:00 +12°C° 0 mm 2 mps 726 mmHg 40%
    20:00 +10°C° 0 mm 2 mps 726 mmHg 41%
    21:00 +10°C° 0 mm 1 mps 726 mmHg 42%
    22:00 +10°C° 0 mm 1 mps 726 mmHg 43%
    23:00 +9°C° 0 mm 1 mps 726 mmHg 45%

    25 February, Tuesday

    Time Temperature Precipitation Wind Pressure Humidity
    00:00 +8°C° 0 mm 2 mps 727 mmHg 46%
    01:00 +7°C° 0 mm 2 mps 727 mmHg 48%
    02:00 +7°C° 0 mm 2 mps 727 mmHg 50%
    03:00 +6°C° 0 mm 2 mps 727 mmHg 52%
    04:00 +5°C° 0 mm 3 mps 728 mmHg 55%
    05:00 +5°C° 0 mm 4 mps 728 mmHg 58%
    06:00 +3°C° 0 mm 5 mps 729 mmHg 61%
    07:00 +3°C° 0 mm 6 mps 729 mmHg 64%
    08:00 +3°C° 0 mm 7 mps 730 mmHg 66%
    09:00 +3°C° 0 mm 7 mps 731 mmHg 69%
    10:00 +1°C° 0.3 mm 8 mps 731 mmHg 76%
    11:00 0°C° 0.3 mm 8 mps 731 mmHg 84%
    12:00 -1°C° 0.3 mm 8 mps 731 mmHg 91%
    13:00 -2°C° 0.9 mm 8 mps 731 mmHg 92%
    14:00 -3°C° 0.9 mm 9 mps 730 mmHg 93%
    15:00 -3°C° 0.9 mm 9 mps 730 mmHg 94%
    16:00 -2°C° 0.4 mm 8 mps 730 mmHg 90%
    17:00 -2°C° 0.4 mm 7 mps 731 mmHg 86%
    18:00 -1°C° 0.4 mm 5 mps 731 mmHg 82%
    19:00 -1°C° 0 mm 4 mps 731 mmHg 81%
    20:00 0°C° 0 mm 3 mps 731 mmHg 81%
    21:00 +1°C° 0 mm 2 mps 731 mmHg 81%
    22:00 0°C° 0 mm 3 mps 731 mmHg 78%
    23:00 -2°C° 0 mm 4 mps 731 mmHg 74%
    Show more